Regional Weather Roundup
Issued by NWS

Home | Current Version | Previous Version | Text Only | Print | Product List | Glossary Off
Versions: 1 2 3 4 5 6 7 8 9 10 11 12 13 14 15 16 17 18 19 20 21 22 23 24 25 26 27 28 29 30 31 32 33 34 35 36 37 38 39 40 41 42 43 44 45 46 47 48 49 50

000
ASUS45 KBOI 192010
RWRID
WEATHER ROUNDUP FOR IDAHO
NATIONAL WEATHER SERVICE BOISE ID
200 PM MDT FRI SEP 19 2014

NOTE: "FAIR" INDICATES FEW OR NO CLOUDS BELOW 12000 FEET
WITH NO SIGNIFICANT WEATHER AND/OR OBSTRUCTIONS TO VISIBILITY

IDZ012-014-192100-
SOUTHWEST IDAHO


CITY           SKY/WX    TMP DP  RH WIND       PRES   REMARKS
BOISE          SUNNY     75  47  36 W10G20    30.07F
CALDWELL       SUNNY     73  46  38 NW12      30.08F
MOUNTAIN HOME  SUNNY     77  46  33 NW10G20   30.06F
$$

IDZ016-017-192100-
SOUTHCENTRAL IDAHO


CITY           SKY/WX    TMP DP  RH WIND       PRES   REMARKS
BURLEY         SUNNY     74  46  36 W12G21    30.09F
JEROME         SUNNY     74  45  35 SW10      30.10F
TWIN FALLS     SUNNY     75  46  35 W13       30.11F
$$

IDZ019>023-192100-
SOUTHEAST IDAHO


CITY           SKY/WX    TMP DP  RH WIND       PRES   REMARKS
IDAHO FALLS    SUNNY     75  45  34 SW13G26   30.09F
POCATELLO      SUNNY     76  44  32 W17G24    30.10F
REXBURG        SUNNY     71  45  39 W12       30.10S
$$

IDZ006-010-011-018-031-032-192100-
CENTRAL IDAHO MOUNTAINS


CITY           SKY/WX    TMP DP  RH WIND       PRES   REMARKS
MCCALL         SUNNY     69  41  36 S7        30.13F
HAILEY         MOSUNNY   75  41  29 E9        30.10F
STANLEY          N/A     72  34  24 NW9G18    30.18F
SALMON         SUNNY     72  43  35 CALM      30.04F
CHALLIS        SUNNY     75  37  25 E6        30.06F
$$

IDZ002-004-006-007-026-192100-
NORTHERN IDAHO


CITY           SKY/WX    TMP DP  RH WIND       PRES   REMARKS
LEWISTON       SUNNY     79  47  32 N9        30.03F
LOWELL           N/A     81  48  31 CALM      30.02F
COEUR D`ALENE  PTSUNNY   72  48  43 S9        30.05F
MULLAN PASS    CLOUDY    49  44  83 VRB5      30.18R
$$


USA.gov is the U.S. government's official web portal to all federal, state and local government web resources and services.